NIMBUS 2 DEB, 26669

Orbit data source: Space-Track

NIMBUS 2 DEB, 26669 is space debris in SSO originally from a launch on Sun, 15 May 1966 UTC launched from the Air Force Western Test Range (AFWTR). Debris objects in space refer to the collection of defunct objects orbiting the Earth. Examples of debris include non-operational satellites, rocket bodies, and fragments generated from explosions, collisions, or faulty payload assembly.

Loading next visibility...
Identifier
26669, 1966-040J
Orbit
SSO
Country
Flag of USUS
Related business
Manufacturer
Unknown
Mission
Spacecraft
Bus & Motor
Unknown
Mass
Unknown
Launch date (UTC)
1966-05-15 (60 years ago)
Launch vehicle
Unknown
Launch site
Air Force Western Test Range (AFWTR)
Object type
Payload
Rocket body
Debris
Shape & HBR
Unknown shape, 0.1 m
Radar Cross Section
Small (<0.1 m²)

Expand to show TLE details & history
Last TLE update: 23 hours ago

TLE from 23 hours ago
0 NIMBUS 2 DEB
1 26669U 66040J   26127.62732917  .00003921  00000-0  32881-2 0  9999
2 26669 100.1236 172.6649 0028149 276.4509 237.4597 13.88618874284225
Epoch: 2026-05-07T15:03Z
TLE epoch observation values (Epoch: 2026-05-07T15:03:21.240Z)
Latitude
25.95369°
Longitude
-93.68471°
Altitude
947.654 km
Speed
7.375 km/s
True Right ascension
23h 50m 29s
True Declination
25° 49' 20"
Sunlit
Object was in daylight at epoch
Visualization orbit readout
Latitude
Unknown
Longitude
Unknown
Altitude
Unknown
Speed
Unknown
Apparent Right ascension
Unknown
Apparent Declination
Unknown
Sunlit
N/A
Visualization observer readout
Local Sidereal Time
22:35:31
Azimuth
Unknown
Elevation
Unknown
Doppler factor
Unknown
Orbital elements
Apogee altitude
951.321 km
Perigee altitude
910.174 km
Semi-major axis
7,308.885 km
Eccentricity
0.00281
Inclination
100.1236°
RAAN
172.6649°
Arg. of periapsis
276.4509°
True anomaly
237.18829°
Mean anomaly
237.4597°
Eccentric anomaly
237.32394°
Mean motion
3.47349 °/min
Orbital period
103.64 mins
BSTAR
0.0032881
Loading maneuver chart data...
Computing Atmospheric mass density...
Loading historical data...
Loading historical data...
Loading historical data...
Loading historical data...
Loading historical data...
Loading historical data...
Loading historical data...

Documentation

Showing up to 5 results
|